Regional Weather Roundup
Issued by NWS

Home | Current Version | Previous Version | Graphics & Text | Print | Product List | Glossary On
Versions: 1 2 3 4 5 6 7 8 9 10 11 12 13 14 15 16 17 18 19 20 21 22 23 24 25 26 27 28 29 30 31 32 33 34 35 36 37 38 39 40 41 42 43 44 45 46 47 48 49 50
910
ASUS43 KLOT 180108
RWRIL

ILLINOIS REGIONAL WEATHER ROUNDUP
NATIONAL WEATHER SERVICE CHICAGO/ROMEOVILLE IL
700 PM CST SAT FEB 17 2018

NOTE: "FAIR" INDICATES FEW OR NO CLOUDS BELOW 12,000 FEET WITH NO
SIGNIFICANT WEATHER AND/OR OBSTRUCTIONS TO VISIBILITY.

* THESE STATIONS ARE NOT UNDER NWS QUALITY CONTROL. THEY ALSO MAY NOT
  REPORT WEATHER SUCH AS PRECIPITATION OR FOG.

ILZ001-002-007-009-015-016-024-180200-
NORTHWEST ILLINOIS

CITY           SKY/WX    TMP DP  RH WIND       PRES   REMARKS
MOLINE         FAIR      27  22  81 W9        30.11R WCI  18
STERLING*      CLOUDY    28  25  88 W16       30.09R WCI  16
SAVANNA*       FAIR      28  22  79 W9        30.09R WCI  19
$$

ILZ003-004-008-010-011-017-018-180200-
NORTH CENTRAL ILLINOIS

CITY           SKY/WX    TMP DP  RH WIND       PRES   REMARKS
ROCKFORD       CLOUDY    29  24  82 NW12      30.07R WCI  19
FREEPORT*      CLOUDY    28  24  83 W9        30.07R WCI  19
ROCHELLE*      CLOUDY    29  26  86 W16G22    30.06R WCI  18
DE KALB*       CLOUDY    29  26  88 W16       30.04R WCI  17
PERU*          CLOUDY    29  24  82 W16       30.09R WCI  17
$$

ILZ005-006-012>014-019>023-180200-
NORTHEAST ILLINOIS

CITY           SKY/WX    TMP DP  RH WIND       PRES   REMARKS
CHICAGO-OHARE  CLOUDY    33  29  85 W13       30.00R WCI  24
CHICAGO-MIDWAY CLOUDY    33  30  88 W12       30.02R WCI  24
AURORA         CLOUDY    30  26  85 W18       30.04R WCI  18
LANSING*       CLOUDY    32  31  95 W14       30.02R WCI  22
JOLIET*        CLOUDY    33  30  90 W9G16     30.06R WCI  25
WAUKEGAN       MOCLDY    31  28  89 W7        29.99R FOG     WCI  24
DUPAGE AIRPORT MOCLDY    30  27  88 W17G25    30.02R FOG     WCI  18
KANKAKEE*      CLOUDY    32  28  85 W18G24    30.07R WCI  21
WHEELING       CLOUDY    33  31  92 W12       30.02R WCI  24
MORRIS*        CLOUDY    32  28  85 W16       30.05R WCI  21
ROMEOVILLE*    CLOUDY    32  29  90 W18       30.04R WCI  20
NORTHERLY ISL    N/A     32  30  93 W10         N/A  WCI  24
$$

LMZ740>746-180200-
SOUTHERN LAKE MICHIGAN

STATION/POSITION SKY/WX   TEMP    WIND        PRES    VSBY  WAVE
                          AIR SEA DIR/SP/G                  HT/PER
                          (F)     (DEG/KT/KT) (MB)    (MI)  (FT/S)
HARRISON CRIB              33     270/ 17/ 19   N/A
BURNHAM HARBOR             32     250/  7/ 12   N/A
CALUMET HARBOR             32     240/  7/ 15 1015.4R
BURNS HARBOR               32     240/ 12/ 17 1015.9R
MICHIGAN CITY              32     210/ 13/ 14   N/A
$$

ILZ025>027-034>036-040-047-049-050-058-095>099-180200-
WEST-CENTRAL ILLINOIS

CITY           SKY/WX    TMP DP  RH WIND       PRES   REMARKS
QUINCY         CLEAR     35  26  69 NW6       30.13R WCI  30
GALESBURG*     FAIR      26  24  92 W6        30.13R WCI  19
MACOMB*        CLEAR     31  29  92 NW6       30.15R WCI  25
JACKSONVILLE*  CLEAR     32  29  90 W5        30.12R WCI  27
PITTSFIELD*    CLEAR     36  31  81 NW5       30.14R WCI  32
$$

ILZ028>032-037-038-041>044-048-051>054-059>061-180200-
CENTRAL ILLINOIS

CITY           SKY/WX    TMP DP  RH WIND       PRES   REMARKS
PONTIAC        CLOUDY    33  32  97 W22       30.09R WCI  20
BLOOMINGTON    MOCLDY    31  28  89 NW18      30.09R WCI  19
DECATUR        MOCLDY    35  32  88 W9        30.12R WCI  28
PEORIA         FAIR      31  25  78 NW9       30.13R WCI  23
LACON*         CLOUDY    31  26  81 W13       30.11R WCI  21
LINCOLN*       FAIR      35  33  93 NW5       30.12R WCI  31
SPRINGFIELD    FAIR      35  33  92 W6        30.13R WCI  30
TAYLORVILLE    FAIR      34  32  93 W6        30.12R WCI  29
$$

ILZ033-039-045-046-055>057-062-063-180200-
EAST-CENTRAL ILLINOIS

CITY           SKY/WX    TMP DP  RH WIND       PRES   REMARKS
CHAMPAIGN      CLOUDY    34  30  85 W16       30.10R WCI  24
DANVILLE*      CLOUDY    33  31  91 W15G22    30.05R WCI  23
RANTOUL*       MOCLDY    35  32  88 W18G24    30.08R WCI  25
MATTOON        FAIR      34  31  88 W12       30.10R WCI  25
PARIS*         CLOUDY    35  33  90 W17G26    30.11R WCI  25
$$

ILZ079-100>102-180200-
SOUTHWEST ILLINOIS

CITY           SKY/WX    TMP DP  RH WIND       PRES   REMARKS
ALTON          CLEAR     34  32  93 W5        30.14R WCI  30
BELLEVILLE     FAIR      37  33  86 SW5       30.14R WCI  33
CAHOKIA*       FAIR      39  34  82 SW3       30.14R
SPARTA*        FAIR      39  37  92 CALM      30.18R
$$

ILZ064>066-069>071-074>076-080>082-084>086-088>090-092>094-180200-
SOUTH-CENTRAL ILLINOIS

CITY           SKY/WX    TMP DP  RH WIND       PRES   REMARKS
CARBONDALE     FAIR      42  39  89 W5        30.17R
CAIRO*         FAIR      40  40  97 CALM      30.20R
EFFINGHAM*     MOCLDY    37  35  92 W9        30.14R WCI  30
MARION         CLOUDY    41  41 100 CALM      30.18R
MT. VERNON     FAIR      38  35  89 VRB3      30.16R
CENTRALIA*     FAIR      38  35  91 W6        30.14R WCI  33
SALEM*         FAIR      38  34  86 W6        30.14R WCI  33
METROPOLIS*    FAIR      40  39  97 SW3       30.20R
$$

ILZ067-068-072-073-078-083-087-091-180200-
SOUTHEAST ILLINOIS

CITY           SKY/WX    TMP DP  RH WIND       PRES   REMARKS
LAWRENCEVILLE  CLOUDY    39  37  92 W12       30.14R WCI  32
FLORA*         FAIR      40  35  82 W8        30.15R
FAIRFIELD*     CLOUDY    39  37  93 CALM      30.15R
HARRISBURG*    CLOUDY    41  40  95 W6        30.18R
ROBINSON*      CLOUDY    38  36  92 W15       30.14R WCI  29
CARMI*         CLOUDY    41  38  91 W9        30.15R
$$

ABBREVIATIONS USED IN REMARKS
   TC - TEMPERATURE IN CELSIUS
  WCI - WIND CHILL INDEX
   HX - HEAT INDEX
  VSB - VISIBILITY
$$





USA.gov is the U.S. government's official web portal to all federal, state and local government web resources and services.